Cloud_Cover
56 92 92 44 20 12 8 8 8 20 44 80 92 92 92 92 56 12 0 0 0 0 0 0 0 0 0 12 12 8 0 0 0 0 0 0 8 8 0 0 0 0 0 0 0 0 0 0 8 8 8 8 12 24 32 12 8 8 8 8 8 8 20 20 24 20 12 8 8 8 0 0 0 0 8 8 8 8 8 0 0 0 0 0 0 0 0 0 8 8 8 24 24 12 8 0 0 8 8 20 20 12 32
56 92 92 44 20 12 8 8 8 20 44 80 92 92 92 68 32 8 0 0 0 0 0 0 0 8 12 20 12 8 8 8 8 8 8 8 8 8 8 8 8 0 0 0 0 0 0 0 0 8 8 8 8 12 8 8 8 8 8 8 8 8 20 24 24 24 20 12 8 8 0 0 0 0 0 0 0 0 0 0 0 0 0 0 0 0 0 0 0 0 0 8 8 8 0 0 0 8 12 20 12 12 20
48 92 92 36 12 12 12 8 8 8 12 76 92 92 80 36 12 8 8 8 8 8 8 0 0 8 20 20 12 8 8 8 8 8 12 12 8 8 8 8 8 8 8 8 8 8 8 8 8 8 12 8 8 8 8 8 8 8 8 8 8 8 12 24 36 36 20 12 8 0 0 0 0 0 0 0 0 0 0 0 0 0 0 0 0 0 0 0 0 0 0 0 0 0 0 0 0 20 80 44 44 44 20
48 92 92 36 12 8 8 8 8 8 8 76 92 92 92 24 8 8 8 8 8 8 8 8 8 8 12 12 8 8 8 8 8 8 8 8 8 8 8 8 8 8 8 8 8 12 12 8 8 8 8 8 8 8 12 8 8 8 12 8 8 12 20 24 32 24 12 12 12 8 8 20 20 8 0 0 0 0 0 0 0 0 0 0 0 0 0 0 0 0 0 0 0 0 0 8 12 24 44 56 48 32 12
48 92 92 64 44 32 8 8 8 8 8 12 56 92 76 24 8 8 8 8 8 8 8 8 8 8 8 8 8 8 8 8 8 8 8 8 8 8 8 8 8 8 8 8 8 8 8 8 8 8 12 12 12 12 12 8 8 8 12 12 12 12 20 24 24 24 20 12 8 8 0 0 0 0 0 0 0 0 0 0 0 0 0 0 0 0 0 12 20 20 0 0 0 0 0 24 36 48 64 44 32 32 24
48 92 92 92 64 24 8 8 12 20 12 12 44 68 68 20 8 8 8 8 8 8 8 8 8 8 8 8 8 8 8 8 0 0 0 0 0 0 8 8 8 8 8 8 8 8 8 8 12 12 12 12 12 12 12 8 12 12 20 12 12 20 24 24 24 20 20 12 8 0 0 0 0 0 0 0 0 0 0 0 0 0 0 0 0 8 12 12 12 12 8 20 24 32 36 36 44 48 44 20 8 8 8
8 32 92 92 80 56 24 12 8 12 12 12 36 68 76 44 20 8 8 8 8 8 8 8 8 8 8 8 8 8 8 8 8 0 0 8 8 0 0 0 0 0 8 8 8 8 8 8 12 12 12 12 12 12 12 12 12 20 20 12 12 20 20 24 24 24 12 12 8 0 0 0 0 0 0 0 0 0 0 0 0 0 0 8 24 44 24 12 8 20 56 20 12 24 48 68 56 32 24 20 12 8 0
20 44 92 92 92 88 76 24 8 12 20 24 32 48 68 44 24 12 12 8 8 8 8 8 8 8 8 8 8 8 8 8 8 8 8 12 12 12 12 12 12 12 12 12 8 8 8 8 12 12 12 12 12 12 12 12 12 20 20 12 20 20 24 24 24 20 12 8 8 0 0 0 0 0 0 0 0 0 0 0 0 0 0 0 8 8 8 8 8 12 32 20 32 44 48 64 36 20 36 12 8 8 0
44 36 56 76 80 76 68 24 8 20 64 56 44 44 56 44 32 12 12 12 12 12 12 8 8 8 8 8 8 8 8 8 8 12 12 12 12 12 12 12 12 12 8 8 8 8 12 12 12 12 12 12 12 12 12 12 20 20 20 20 20 24 24 24 24 24 12 8 0 0 0 0 0 0 0 0 0 0 0 0 0 0 0 8 8 8 8 12 32 56 68 32 20 20 12 48 56 44 12 8 0 0 8
56 48 24 44 48 56 44 20 12 36 92 92 76 56 48 36 24 12 12 12 12 12 12 12 12 12 12 12 12 8 8 8 8 12 12 8 8 8 8 8 8 8 8 8 8 12 12 12 12 12 12 12 12 12 12 20 20 20 20 20 20 24 24 24 24 20 12 8 0 0 0 0 0 0 0 0 0 0 0 0 8 12 8 8 8 8 12 12 12 8 12 8 32 44 20 36 32 24 0 8 0 8 24
76 48 8 20 36 44 44 20 12 36 92 92 92 76 36 24 20 12 12 12 12 12 12 12 20 12 12 12 12 8 8 8 8 8 8 8 8 8 8 8 8 8 8 12 12 12 12 12 12 12 20 20 20 20 20 20 20 20 20 20 24 24 32 32 24 20 8 8 0 0 0 0 0 0 0 0 0 0 0 8 36 48 0 8 12 12 8 8 8 8 8 8 8 12 20 20 12 0 0 0 8 12 20
56 44 12 8 20 32 32 20 32 56 92 92 76 48 24 12 8 12 12 12 8 12 12 12 12 12 12 12 12 8 8 8 8 8 8 8 8 8 8 8 8 8 12 12 12 12 12 12 12 20 20 20 20 20 20 20 20 20 20 20 24 32 32 32 24 20 8 8 8 8 0 0 0 0 0 0 0 0 0 20 24 20 8 0 0 8 8 20 12 8 20 12 24 32 20 12 8 0 8 0 12 24 32
80 56 24 12 8 12 12 12 24 56 92 92 80 56 20 12 8 12 12 8 8 8 12 8 8 8 8 8 8 8 12 8 8 12 12 12 12 12 12 12 12 12 20 20 20 20 20 20 20 20 20 20 20 20 20 24 24 24 20 24 24 32 32 32 24 20 12 12 8 8 8 0 0 0 0 0 0 0 0 8 12 20 8 0 8 8 12 44 44 20 8 8 12 8 0 0 8 8 0 0 0 8 20
92 88 68 24 8 8 8 8 20 44 92 92 92 80 32 12 8 8 12 8 8 12 12 8 8 8 8 8 8 8 12 8 12 12 20 20 20 20 20 20 20 20 20 20 20 20 20 20 12 12 12 12 12 12 20 24 24 24 24 24 32 32 32 32 24 20 12 12 12 8 8 0 0 0 8 12 20 20 8 8 12 20 12 12 8 8 8 8 32 36 20 12 8 8 0 0 0 0 0 0 0 0 0
92 88 76 24 12 12 12 12 8 24 80 92 92 76 12 12 8 12 12 12 12 12 12 8 8 8 8 12 12 8 8 8 8 12 20 20 20 20 20 20 20 20 20 20 20 20 20 12 12 12 12 12 12 12 20 24 24 24 24 24 32 32 36 32 24 20 12 12 12 12 8 0 0 0 0 0 8 12 32 12 20 24 8 12 12 8 8 0 0 8 12 12 12 8 0 0 0 0 0 0 0 0 0
92 88 68 36 20 12 12 12 12 20 36 80 92 76 12 12 12 12 8 8 8 8 12 8 8 8 12 12 12 12 8 8 8 8 8 20 20 20 24 20 20 20 12 12 12 12 12 12 8 12 20 20 20 20 20 24 24 24 24 32 32 36 36 36 32 20 12 20 20 20 12 8 0 0 0 0 0 8 24 12 8 0 0 8 8 8 8 0 0 0 0 8 8 8 0 0 0 0 0 0 0 0 0
92 92 76 48 32 20 20 12 12 20 20 68 88 76 20 20 12 12 12 12 12 12 8 12 12 12 8 8 12 12 12 8 8 8 8 8 12 24 24 20 20 12 8 8 8 8 8 8 8 12 12 20 20 20 20 24 24 32 24 24 32 36 44 36 32 24 20 20 20 20 12 8 0 0 0 0 0 0 0 0 0 8 8 8 8 12 12 8 0 0 0 0 0 0 0 0 0 0 0 0 0 0 0
92 92 76 64 44 32 20 20 20 24 24 48 76 80 44 32 24 24 24 24 20 20 12 20 20 12 12 8 12 20 12 32 24 12 8 8 12 12 20 20 20 12 8 8 8 8 8 8 8 12 12 20 20 20 20 20 32 36 36 32 32 36 48 44 36 24 20 24 20 20 12 8 8 0 0 0 0 0 0 0 0 0 0 0 8 8 12 0 0 0 0 0 0 0 0 0 0 0 0 0 0 0 0
92 88 76 64 56 44 32 32 24 24 32 44 76 88 68 44 32 32 32 32 32 24 24 24 20 20 12 12 12 24 32 48 36 20 8 12 12 12 20 20 20 20 12 8 8 8 8 8 12 12 12 12 20 20 20 20 24 36 36 32 32 36 48 44 36 32 24 24 24 20 20 12 8 0 0 0 0 0 0 0 0 0 0 0 0 0 0 0 0 0 0 0 0 0 0 0 0 0 0 0 0 0 0
92 92 80 76 68 56 44 36 32 32 36 44 64 80 88 48 36 36 32 36 32 32 32 24 20 20 12 12 20 24 48 44 36 24 12 12 12 12 20 20 20 20 20 12 12 8 8 8 12 12 12 12 12 20 20 20 24 32 24 32 36 36 48 48 44 36 24 32 24 24 24 12 8 8 0 0 0 0 0 0 0 0 0 0 0 0 0 0 0 0 0 0 0 0 0 0 0 0 0 0 0 0 0
92 92 92 88 76 56 56 44 36 36 36 36 48 68 92 56 36 36 32 32 32 32 24 20 20 20 12 20 24 32 44 36 44 36 24 20 12 12 20 20 20 20 20 20 12 12 12 12 12 12 12 12 12 12 20 20 20 24 24 32 36 36 48 48 44 36 32 32 32 32 24 12 12 8 0 0 0 0 0 0 0 0 0 0 0 0 0 0 0 0 0 0 0 0 0 0 0 0 0 0 0 0 0
92 92 92 88 76 64 56 36 32 36 32 36 56 76 92 56 44 36 32 32 32 32 24 24 20 20 20 20 24 32 36 24 32 32 24 20 20 20 20 20 20 20 20 20 20 12 12 12 12 12 12 12 12 20 24 20 20 24 32 32 32 36 48 56 48 48 36 36 36 36 24 20 12 8 0 0 0 0 0 0 0 0 0 0 0 0 0 0 0 0 0 0 0 0 0 0 0 0 0 0 0 0 0
92 92 92 88 76 64 56 32 24 32 32 56 68 76 92 56 36 36 32 32 32 32 32 24 24 24 24 20 20 20 24 24 24 24 24 24 20 20 24 24 24 20 20 20 12 12 8 8 8 8 12 12 12 20 24 24 24 24 24 32 32 36 44 48 56 56 44 36 36 36 32 20 12 8 0 0 0 0 0 0 0 0 0 0 0 0 0 0 0 0 0 0 0 0 0 0 0 0 0 0 0 0 0
92 92 92 88 80 76 68 44 32 24 24 64 76 80 92 48 36 36 32 32 32 36 56 36 24 24 24 24 20 20 20 24 24 24 32 24 24 24 24 24 24 24 20 20 12 12 8 8 8 8 8 8 12 20 24 32 24 24 24 32 32 36 44 48 56 56 44 44 36 36 32 20 12 12 0 0 0 0 0 0 0 0 0 0 0 0 0 0 0 0 0 0 0 0 0 0 0 0 0 0 0 0 0
92 92 92 92 92 88 76 56 36 24 24 48 68 76 92 64 44 32 32 32 32 44 88 44 24 24 24 24 24 20 20 20 24 24 32 32 32 24 32 24 24 24 20 20 12 12 8 8 8 12 8 8 12 12 24 32 24 24 24 32 32 36 44 48 56 56 56 48 44 36 32 20 12 8 0 0 0 0 0 0 0 0 0 0 0 0 0 0 0 0 0 0 0 0 0 0 0 0 0 0 0 0 0
92 92 92 92 80 68 92 56 56 68 64 64 68 76 80 68 44 32 48 36 32 48 92 44 32 24 24 24 24 20 20 20 24 24 32 32 32 32 24 24 24 20 20 20 12 12 8 8 8 8 12 12 20 24 32 32 32 32 32 32 32 36 48 56 56 56 48 44 36 32 32 24 20 8 0 0 0 0 0 0 0 0 0 0 0 0 0 0 0 0 0 0 0 0 0 0 0 0 0 0 0 0 0
92 92 92 92 88 80 64 56 76 88 76 68 64 64 64 80 88 76 44 32 44 64 92 44 32 32 24 24 20 20 12 20 20 24 24 24 32 24 24 20 20 20 20 20 12 12 12 12 12 12 12 12 20 24 32 32 32 32 32 32 36 44 48 56 56 56 44 44 36 36 32 24 20 12 0 0 0 0 0 0 0 0 0 0 0 0 0 0 0 0 0 0 0 0 0 0 0 0 0 0 0 0 0
92 92 92 88 88 88 64 64 80 92 88 80 64 48 56 64 80 92 88 44 48 76 92 56 36 32 24 24 20 20 20 20 20 20 20 20 24 24 24 24 20 20 20 20 20 12 12 12 12 12 12 12 24 32 36 32 32 32 32 36 36 44 44 56 64 64 56 44 36 32 32 32 24 20 12 0 0 0 0 0 0 0 0 0 0 0 0 0 0 0 0 0 0 0 0 0 0 0 0 0 0 0 0
92 92 92 92 92 92 80 88 92 92 92 92 76 56 48 48 76 92 92 92 80 80 92 56 36 24 24 20 20 20 20 20 20 20 20 24 24 24 24 20 20 20 20 20 20 12 12 12 12 12 12 20 24 32 44 36 32 32 36 36 36 44 48 56 64 68 56 44 36 36 32 32 24 20 12 0 0 0 0 0 0 0 0 0 0 0 0 0 0 0 0 0 0 0 0 0 0 0 0 0 0 0 0
92 92 92 92 92 88 80 92 92 92 92 92 68 48 48 44 68 88 68 88 92 92 92 76 44 24 20 20 20 20 20 24 32 24 24 24 24 24 24 24 20 20 20 20 20 20 20 20 20 12 20 32 36 36 44 32 32 36 44 36 44 44 48 56 64 64 56 44 36 36 32 24 24 20 12 8 0 0 0 0 0 0 0 0 0 0 0 0 0 0 0 0 0 0 0 0 0 0 0 0 0 0 0
92 92 92 92 92 92 88 92 92 92 92 88 64 44 48 44 36 32 32 56 76 88 80 68 44 24 20 24 24 24 24 24 24 24 24 24 24 24 24 24 24 24 24 20 20 20 20 20 24 24 24 36 36 36 24 32 36 44 44 44 44 44 48 64 68 64 48 36 36 36 32 24 24 20 12 8 0 0 0 0 0 0 0 0 0 0 0 0 0 0 0 0 0 0 0 0 0 0 0 0 0 0 0
92 92 92 92 92 92 88 92 92 92 92 92 76 56 36 36 36 36 32 32 48 56 56 56 36 24 20 24 24 32 32 32 32 32 32 32 32 24 24 24 24 24 24 24 24 24 24 24 24 32 32 36 36 32 24 36 36 36 44 44 48 48 48 64 68 68 56 44 44 44 44 32 24 20 20 12 8 0 0 0 0 0 0 0 0 0 0 0 0 0 0 0 0 0 0 0 0 0 0 0 0 0 0
92 92 92 92 92 88 80 92 92 92 92 80 68 56 48 64 56 44 36 32 32 36 44 56 56 48 32 32 32 32 32 32 32 32 32 32 32 24 24 24 24 24 24 32 32 32 32 32 32 36 36 36 36 36 36 36 36 44 44 48 48 48 48 64 68 68 56 44 44 44 44 36 32 24 20 20 8 0 0 0 0 0 0 0 0 0 0 0 0 0 0 0 0 0 0 0 0 0 0 0 0 0 0
92 92 92 92 88 80 76 88 92 92 92 88 68 68 88 92 88 76 36 36 32 36 68 68 64 56 36 36 36 36 32 24 32 32 32 32 24 24 32 32 24 24 24 32 32 32 32 36 36 36 36 36 44 44 44 44 44 44 48 48 48 48 48 64 68 68 48 44 44 44 44 36 32 24 24 20 12 0 0 0 0 0 0 0 0 0 0 0 0 0 0 0 0 0 0 0 0 0 0 0 0 0 0
92 92 92 92 88 80 76 80 76 80 92 92 80 56 56 68 80 88 80 48 44 56 76 68 64 48 36 36 36 32 24 24 24 24 32 32 24 24 32 24 24 32 32 32 32 36 36 36 36 36 44 44 44 44 44 44 44 44 48 48 48 56 56 64 68 68 56 48 36 36 36 36 36 36 32 24 12 8 0 0 0 0 0 0 0 0 0 0 0 0 0 0 0 0 0 0 0 0 0 0 0 0 0
92 92 92 92 88 80 68 76 76 80 92 92 80 68 48 68 80 88 92 76 76 80 76 68 64 56 48 36 32 24 20 20 20 24 24 24 24 32 36 32 32 32 32 36 36 36 36 36 36 36 48 44 44 44 44 44 44 48 48 48 48 56 64 64 68 68 76 64 44 32 36 36 36 36 36 32 20 12 8 0 0 0 0 0 0 0 0 0 0 0 0 0 0 0 0 0 0 0 0 0 0 0 0
92 92 92 88 76 64 48 64 68 80 92 92 88 76 64 64 64 68 76 76 80 80 76 68 64 56 48 32 24 24 20 20 20 24 24 32 32 32 36 36 36 36 36 36 36 36 36 36 36 36 48 44 44 48 44 36 48 56 64 56 44 44 64 68 68 68 76 88 64 36 24 36 36 32 32 32 24 20 12 8 0 0 0 0 0 0 0 0 0 0 0 0 0 0 0 0 0 0 0 0 0 0 12
92 92 92 92 88 68 48 56 64 80 92 92 92 92 80 64 48 48 56 68 80 80 76 76 68 64 48 36 24 24 24 32 32 32 32 36 36 36 44 36 36 44 44 36 36 36 36 32 36 44 44 48 48 44 44 44 48 64 56 56 48 44 68 68 68 64 76 76 64 48 32 36 36 36 32 36 44 44 32 20 8 0 0 0 0 0 0 8 8 8 8 8 12 12 0 0 0 0 0 8 8 8 20
92 92 92 92 88 68 48 48 64 76 92 92 92 92 88 56 48 48 64 68 76 80 80 80 76 68 56 48 36 32 36 36 36 36 44 44 44 44 44 44 44 44 44 44 44 44 44 36 44 48 48 48 48 44 36 56 64 64 56 56 48 48 76 76 76 76 76 68 64 64 44 36 36 36 36 56 68 68 80 48 24 12 12 8 8 0 12 12 12 12 12 20 32 32 12 24 24 24 20 24 20 8 8
92 92 92 92 88 76 56 48 56 76 88 88 92 92 92 64 56 64 68 76 76 80 88 88 80 76 64 48 44 44 44 44 44 44 44 44 44 44 44 44 44 48 48 48 48 44 44 48 56 56 56 56 48 48 48 64 64 64 56 48 44 48 76 76 76 76 76 64 48 44 36 44 48 56 56 48 64 80 80 76 56 32 20 20 12 12 12 20 20 24 20 32 44 44 36 48 56 56 44 36 20 12 8
92 92 92 92 92 80 68 56 56 68 88 92 92 88 92 76 68 76 76 80 88 88 92 88 80 76 64 48 44 44 44 44 44 44 44 36 36 36 36 44 48 48 56 48 48 48 48 56 64 64 56 56 48 48 56 64 64 64 56 44 44 56 76 76 76 76 76 56 36 32 32 48 76 92 88 76 68 56 48 64 48 36 32 24 24 20 12 12 20 20 20 24 32 36 48 32 44 56 36 24 12 8 8
92 92 92 92 88 80 68 56 56 68 92 92 92 88 88 80 80 80 76 88 88 88 92 88 80 76 64 56 48 44 44 36 44 44 44 36 36 32 36 44 48 48 56 56 56 48 48 64 64 64 56 56 56 56 64 64 64 64 56 48 56 76 76 76 76 80 76 48 32 24 56 76 88 92 92 88 88 76 56 36 24 32 44 32 32 24 20 12 12 12 12 8 8 12 32 12 20 32 20 8 0 8 0
92 92 92 92 92 80 68 64 64 76 92 92 92 92 80 80 80 80 80 80 80 80 88 88 80 76 68 64 56 48 48 44 44 44 44 44 36 36 44 48 56 56 56 56 48 48 48 56 64 64 56 64 64 64 64 64 64 56 56 56 68 80 80 80 80 76 64 36 32 44 76 88 92 88 88 92 92 88 80 64 48 36 44 36 32 24 20 20 12 12 20 12 8 8 8 12 20 12 8 0 8 8 8
92 92 92 92 92 80 76 64 68 80 92 92 92 92 88 88 80 76 68 76 76 80 88 80 80 76 68 64 56 48 48 44 44 48 48 48 48 56 64 56 64 64 64 56 48 48 48 56 64 64 64 64 64 64 64 68 68 64 64 68 76 80 80 80 76 68 56 24 20 32 48 44 36 44 68 76 76 76 80 88 80 68 64 56 44 32 20 20 20 20 24 12 12 20 20 24 20 12 8 8 8 8 0
92 92 92 92 88 80 80 76 76 76 80 80 88 92 88 88 80 76 68 68 76 80 88 80 76 76 68 56 48 44 36 44 48 56 56 56 64 68 68 64 64 68 64 56 48 56 64 64 64 64 64 64 64 64 68 68 64 56 56 68 76 76 76 76 68 64 48 32 20 12 20 8 8 12 36 44 44 44 48 68 76 76 64 48 44 32 24 24 24 20 20 12 24 36 32 24 20 12 8 8 8 8 8
92 92 92 92 88 80 88 80 76 68 68 76 88 92 92 88 88 80 76 80 80 80 88 80 76 76 68 64 48 44 36 48 56 64 64 68 76 76 68 68 68 64 56 48 56 56 64 64 64 64 64 64 64 64 68 68 56 48 64 68 76 80 76 68 68 68 56 44 32 20 12 44 56 48 36 36 48 64 48 44 48 56 48 44 44 36 32 32 24 24 24 32 36 36 32 12 8 8 8 8 8 8 12
92 92 92 92 92 88 80 76 68 68 68 80 88 92 92 88 88 88 88 88 88 88 88 80 80 76 76 68 56 44 44 48 56 64 76 76 76 76 76 68 68 64 56 56 64 64 64 68 68 68 64 64 64 64 56 56 56 64 68 80 80 80 76 76 76 68 64 48 44 48 64 80 88 80 76 76 76 68 56 56 48 48 48 44 36 36 36 36 32 32 48 44 36 32 20 8 0 0 0 0 8 12 20
92 92 92 80 68 68 80 76 76 76 76 80 88 88 88 88 88 92 92 92 92 92 92 92 88 80 80 76 68 56 44 48 48 64 76 80 80 76 76 76 68 64 48 64 64 64 68 76 68 64 56 56 64 64 56 56 64 68 80 80 88 80 80 80 80 76 64 56 56 56 64 68 80 88 88 80 68 56 56 64 64 56 48 48 44 48 68 64 56 56 56 36 24 12 8 0 0 0 0 0 8 8 12
100 100 100 88 76 68 76 76 80 80 80 80 88 88 92 88 92 92 92 92 92 92 92 92 88 88 88 80 76 64 44 56 56 68 80 80 80 80 76 68 68 64 48 56 68 68 76 76 68 64 56 64 64 64 56 56 64 68 80 88 88 88 88 80 80 76 56 64 68 64 56 56 64 68 68 56 56 64 56 64 64 56 56 68 76 76 88 80 76 56 24 20 12 8 0 0 0 0 0 0 0 8 8
100 100 100 88 80 76 68 76 76 80 88 88 88 92 92 92 88 80 92 88 88 88 92 88 80 80 80 80 68 64 56 64 64 68 88 80 80 80 76 76 64 64 68 64 68 76 76 68 68 68 76 76 76 68 48 56 64 76 80 88 88 88 80 76 68 56 44 48 64 68 68 64 64 64 56 48 64 80 76 64 56 56 56 64 68 68 56 56 48 36 8 8 0 0 0 0 0 0 0 0 0 12 20
100 92 92 92 80 68 68 68 76 80 92 92 92 92 92 92 88 80 88 88 80 80 80 80 76 76 80 76 64 48 56 56 68 80 88 88 88 88 92 56 64 76 80 76 76 76 76 68 76 76 76 76 68 56 44 56 68 80 88 88 80 76 64 48 44 36 32 44 64 76 76 80 80 80 88 80 88 92 88 88 68 48 44 36 44 44 20 20 20 12 8 0 0 0 0 0 0 0 0 0 0 8 12
92 92 92 88 88 88 88 68 68 80 92 92 92 92 92 92 88 80 80 88 88 88 76 80 80 76 68 56 44 44 64 76 80 88 88 92 88 76 68 76 80 80 80 80 76 76 64 76 68 68 76 68 64 48 44 44 68 88 88 88 76 64 56 48 44 32 32 64 80 88 88 80 88 92 92 92 80 64 64 56 36 24 24 32 32 24 8 0 8 8 8 8 8 8 8 8 0 0 0 0 8 12 12
92 92 88 88 80 76 80 76 76 88 92 92 92 92 92 92 92 92 92 92 92 92 88 80 76 68 56 48 56 68 80 80 88 88 92 88 80 76 80 80 80 80 80 80 68 56 56 64 64 64 64 68 64 56 56 64 76 88 88 88 76 68 56 48 36 32 44 76 88 88 88 64 76 92 92 76 56 32 24 20 20 20 20 12 12 12 0 8 0 0 0 8 8 8 12 12 8 0 0 0 0 8 0
92 92 92 88 80 76 80 76 76 80 92 92 92 92 92 92 92 92 92 92 92 92 92 80 68 56 44 36 64 88 88 88 88 88 88 80 80 80 80 80 80 68 64 80 80 68 68 64 48 44 36 44 56 64 68 80 88 88 88 80 76 64 56 44 44 48 64 80 80 68 64 76 76 68 36 24 20 20 20 20 24 24 20 12 8 0 8 0 0 0 0 0 0 8 12 20 8 0 0 0 8 12 8
92 92 92 92 80 68 64 56 56 68 92 92 92 92 92 92 92 92 92 92 92 92 92 88 68 48 44 64 80 88 88 88 80 76 76 80 80 88 88 80 76 76 68 80 88 88 64 44 44 44 44 56 56 64 68 80 88 88 88 76 68 64 56 56 44 44 64 76 76 76 76 68 64 64 48 36 32 32 24 24 32 32 24 12 8 8 8 0 0 0 0 0 8 12 12 12 12 8 12 20 20 8 8
92 92 92 92 92 92 76 80 80 88 92 92 92 92 92 92 92 92 92 92 92 92 92 88 76 76 88 80 88 88 88 76 68 64 80 88 88 80 76 80 80 76 76 76 88 80 56 44 44 48 56 56 64 76 76 88 88 88 88 68 68 68 48 44 36 32 32 44 64 80 88 64 56 56 64 56 48 44 36 36 36 32 20 12 12 8 8 0 0 0 0 0 0 8 8 8 8 12 24 32 20 8 0
100 100 100 92 92 92 92 92 92 92 92 92 92 92 92 92 92 92 92 92 92 92 92 88 80 76 88 88 88 88 80 68 64 64 76 80 80 80 80 80 80 80 88 88 88 76 44 44 68 80 76 44 56 76 88 88 88 80 68 64 68 64 36 24 20 8 12 64 80 88 64 56 48 56 64 64 56 56 44 44 36 32 24 20 12 8 8 0 0 0 0 0 0 8 8 8 8 12 32 24 12 8 12
100 100 100 100 100 92 92 92 92 92 92 92 92 92 92 92 92 92 92 92 92 92 88 92 92 88 88 88 88 88 88 76 76 80 80 80 80 80 76 76 80 88 88 92 88 80 64 76 80 80 68 48 44 56 80 88 80 64 64 68 68 56 32 20 24 32 24 44 76 80 48 44 48 56 68 64 64 56 56 48 36 24 20 12 8 8 8 8 8 0 0 0 0 0 8 8 0 12 32 20 12 12 12
100 100 100 100 100 92 92 92 92 92 92 92 92 92 92 92 92 92 92 92 92 92 92 92 92 88 88 88 88 88 80 76 80 88 88 80 76 64 64 68 76 80 88 88 80 76 68 80 68 56 56 64 56 56 56 80 88 80 76 80 80 68 48 32 44 76 80 92 92 80 48 48 64 76 76 64 64 64 64 56 36 20 20 12 8 8 12 12 8 8 8 8 0 0 8 0 0 8 20 20 12 12 12
100 100 100 100 100 92 92 92 92 92 92 92 92 92 92 92 92 92 92 92 92 92 92 88 88 88 88 88 88 80 76 76 76 88 88 80 68 48 36 48 68 76 88 88 88 80 64 68 64 64 68 88 92 92 88 88 88 92 92 92 92 88 64 56 76 92 92 92 88 80 64 68 76 76 68 56 56 56 56 44 32 24 24 12 8 12 20 12 12 8 8 8 0 0 0 0 0 8 12 12 12 12 8
92 100 100 92 92 92 92 92 92 92 92 92 92 92 92 92 92 92 92 92 92 92 92 88 80 80 88 88 88 80 76 68 76 80 88 80 68 48 32 44 56 68 68 80 88 80 76 64 68 76 80 92 92 92 92 80 80 88 76 80 80 88 88 92 92 92 92 76 68 68 68 76 68 68 56 44 36 36 44 36 24 24 24 20 24 24 20 20 12 12 8 8 8 0 0 0 8 8 12 20 20 20 12